Regional Weather Roundup
Issued by NWS

Home | Current Version | Previous Version | Text Only | Print | Product List | Glossary On
Versions: 1 2 3 4 5 6 7 8 9 10 11 12 13 14 15 16 17 18 19 20 21 22 23 24 25 26 27 28 29 30 31 32 33 34 35 36 37 38 39 40 41 42 43 44 45 46 47 48 49 50
000
ASUS44 KFWD 031915
RWRTX
NORTH TEXAS HOURLY WEATHER ROUNDUP
NATIONAL WEATHER SERVICE FORT WORTH TX
100 PM CST TUE MAR 03 2015

NOTE: "FAIR" INDICATES FEW OR NO CLOUDS BELOW 12,000 FEET WITH NO
SIGNIFICANT WEATHER AND/OR OBSTRUCTIONS TO VISIBILITY.

TXZ118-119-032000-
DALLAS/FORT WORTH METROPLEX

CITY           SKY/WX    TMP DP  RH WIND       PRES   REMARKS
DFW AIRPORT    CLOUDY    48  47  96 SE3       29.92F FOG
DALLAS LOVE    DRIZZLE   50  48  93 S3        29.92F FOG
FTW MEACHAM    CLOUDY    53  48  83 SE6       29.91F
DAL-EXECUTIVE  LGT RAIN  50  49  96 VRB3      29.91F FOG
FTW-ALLIANCE   CLOUDY    52  47  83 S5        29.91F
FTW-SPINKS     CLOUDY    52  48  87 S5        29.94R FOG
ARLINGTON      CLOUDY    50  47  89 SE5       29.91F
GRAND PRAIRIE  CLOUDY    48  48 100 CALM      29.94F
ADDISON        CLOUDY    48  46  93 E3        29.94  FOG
LANCASTER      DRIZZLE   47  46  95 CALM      29.95F
$$

TXZ091>094-102>105-117-120-121-131>134-032000-
NORTH CENTRAL TEXAS

CITY           SKY/WX    TMP DP  RH WIND       PRES   REMARKS
SHRMAN/DENISON CLOUDY    48  48 100 CALM      29.95F FOG
GAINESVILLE    CLOUDY    47  45  93 SE5       29.93F FOG
BOWIE          CLOUDY    48  47  95 SE7       29.89F FOG
BRIDGEPORT     CLOUDY    50  47  90 E6        29.92F
DECATUR        CLOUDY    51  48  92 SE6       29.90F
DENTON         CLOUDY    50  46  86 CALM      29.92F FOG
MCKINNEY       LGT RAIN  47  46  97 NE3       29.93F FOG
GREENVILLE     DRIZZLE   50  48  93 CALM      29.95F
TERRELL        LGT RAIN  51  49  92 CALM      29.93F FOG
WAXAHACHIE     CLOUDY    48  48 100 S5        29.95F
CLEBURNE       CLOUDY    48  48 100 SE5       29.93F FOG
GRANBURY       CLOUDY    53  49  86 E6        29.91F
$$

TXZ083>090-098>101-113>116-127>130-139>142-154-155-032000-
WESTERN NORTH TEXAS

CITY           SKY/WX    TMP DP  RH WIND       PRES   REMARKS
WICHITA FALLS  CLOUDY    52  44  74 SW6       29.90S
WF-KICKAPOO    PTSUNNY   54  46  75 SW6       29.91F
VERNON         CLOUDY    57  42  58 SW13      29.88S
ABILENE        CLOUDY    56  49  77 SW16      29.89S
ABILENE-DYESS  CLOUDY    56  48  75 W14       29.87S
BRECKENRIDGE   CLOUDY    62  52  70 SW12      29.87F HAZE
GRAHAM         PTSUNNY   56  49  78 SE3       29.88F
MINERAL WELLS  CLOUDY    55  49  80 VRB6      29.87F
STEPHENVILLE   CLOUDY    55  50  84 SE6       29.91F
COMANCHE       CLOUDY    55  55 100 S6        29.89F
BROWNWOOD      PTSUNNY   50  50 100 S7        29.89F
COLEMAN        CLOUDY    55  52  88 S6        29.88F
BRADY          CLOUDY    61  57  88 S10       29.86F
$$

TXZ143>147-156>162-174-175-032000-
CENTRAL TEXAS

CITY           SKY/WX    TMP DP  RH WIND       PRES   REMARKS
WACO           LGT RAIN  46  45  96 CALM      29.95F FOG
WACO-MCGREGOR  CLOUDY    46  43  87 CALM      29.95F
HILLSBORO      CLOUDY    48  47  96 S3        29.94F FOG
CORSICANA      FOG       52  51  97 N3        29.95F VSB 1/4
MEXIA          FOG       55  55  99 CALM      29.92F VSB 1/4
HEARNE         CLOUDY    58  58  99 S7        29.95F FOG
CAMERON        FOG       50  50  99 CALM      29.93F VSB 1/2
TEMPLE         CLOUDY    46  45  93 CALM      29.93S
KILLEEN        FOG       48  48 100 S3        29.92F VSB 1/4
KILLEEN-SKYLRK CLOUDY    48  45  87 CALM      29.90F VSB 1/4
FORT HOOD      FOG       46  46 100 S6        29.93F VSB 1/2
GATESVILLE     FOG       48  48 100 CALM      29.95F VSB 3/4
HAMILTON       CLOUDY    53  53 100 S12       29.91F FOG
LAMPASAS       CLOUDY    51  50  97 E5        29.90F FOG
$$

TXZ095>097-106>112-122>126-135>138-148>153-164>167-032000-
EAST TEXAS

CITY           SKY/WX    TMP DP  RH WIND       PRES   REMARKS
PARIS          CLOUDY   N/A N/A N/A MISG        N/A
SULPHUR SPRNGS FOG       53  53 100 NW5       29.98S VSB 3/4
MOUNT PLEASANT CLOUDY    65  61  86 S12G17    29.95F
GILMER         MOSUNNY   67  60  79 S6        29.94F
MINEOLA        CLOUDY    63  63 100 S9        29.95F
TYLER          CLOUDY    65  60  84 S17       29.94F
LONGVIEW       PTSUNNY   64  59  83 SE10      29.94F
MARSHALL       CLOUDY    63  61  93 S8        29.99F
ATHENS         CLOUDY    61  59  94 S6        29.94F
PALESTINE      CLOUDY    65  63  91 S9        29.95F
JACKSONVILLE   CLOUDY    66  62  86 S9        29.97F
HENDERSON      PTSUNNY   68  63  83 S9        29.95F
NACOGDOCHES    CLOUDY    66  63  88 S7        29.98F
LUFKIN         CLOUDY    71  63  75 S8        29.97F
$$

SUPPLEMENTAL OBSERVATIONS (CENTRAL)

CITY           SKY/WX    TMP DP  RH WIND       PRES   REMARKS
$$

SUPPLEMENTAL OBSERVATIONS (WEST)

CITY           SKY/WX    TMP DP  RH WIND       PRES   REMARKS
$$

SUPPLEMENTAL OBSERVATIONS (EAST)

CITY           SKY/WX    TMP DP  RH WIND       PRES   REMARKS
$$

SUPPLEMENTAL OBSERVATIONS ARE A COLLECTION OF AUTOMATED INSTRUMENTS
THAT ARE MAINTAINED BY A VARIETY OF FEDERAL AND STATE AGENCIES.
CERTAIN ELEMENTS...SUCH AS HUMIDITY VALUES AND SUSTAINED WIND
SPEEDS...MAY BE APPROXIMATED.




USA.gov is the U.S. government's official web portal to all federal, state and local government web resources and services.